Flag for U.S.A. Weather past 2 weeks in Greenville, South Carolina, U.S.A.

Now
85 °F

Scattered clouds.


Feels Like: 87 °F
Forecast: 66 / 83 °F
Wind: 8 mph from Southwest

Location: Greenville Downtown Airport

Current Time: Sep 16, 2014 at 4:27:29 PM

Latest Report: Sep 16, 2014 at 3:53 PM


Visibility: 10 mi

Pressure: 29.96 "Hg

Humidity: 51%

Dew point: 65 °F

Location of GreenvilleLocation

Historic Weather in Greenville — Graph

°F

Greenville temperature yesterday

Maximum temperature yesterday: 75 °F (at 12:53 PM)
Minimum temperature yesterday: 64 °F (at 1:53 AM)
Average temperature yesterday: 69 °F

Past Weeks' High & Low Weather Summary

 TemperatureHumidityPressure
High93 °F (Sep 2, 2:53 PM)97% (Sep 13, 5:53 AM)30.27 "Hg (Sep 13, 5:53 AM)
Low62 °F (Sep 14, 6:53 AM)38% (Sep 1, 4:53 PM)29.94 "Hg (Sep 6, 5:53 PM)
Average76 °F76%30.08 "Hg
* Reported Sep 1 2:53 PM — Sep 16 2:53 PM, Greenville, Weather by CustomWeather, © 2014

Note: Actual official high and low records may vary slightly from our data, if they occured in-between our weather recording intervals... More about our weather records

Advertising

Greenville weather history for September 2, 2014

 ConditionsComfort  
Time TempWeatherWind HumidityBarometerVisibility
12:53 AM
Sep 2
78 °FClear.6 mph74%30.08 "Hg10 mi
1:53 AM77 °FClear.5 mph79%30.07 "Hg10 mi
2:53 AM76 °FClear.6 mph82%30.06 "Hg10 mi
3:53 AM75 °FClear.3 mph82%30.05 "Hg10 mi
4:53 AM75 °FClear.6 mph82%30.06 "Hg10 mi
5:53 AM74 °FClear.3 mph85%30.07 "Hg10 mi
6:53 AM75 °FClear.No wind82%30.07 "Hg10 mi
7:53 AM74 °FClear.3 mph88%30.08 "Hg10 mi
8:53 AM76 °FSunny.5 mph82%30.08 "Hg10 mi
9:53 AM82 °FSunny.7 mph67%30.08 "Hg10 mi
10:53 AM85 °FSunny.8 mph61%30.08 "Hg10 mi
11:53 AM87 °FSunny.8 mph57%30.07 "Hg10 mi
12:53 PM89 °FPassing clouds.5 mph53%30.06 "Hg10 mi
1:53 PM91 °FSunny.5 mph50%30.04 "Hg10 mi
2:53 PM93 °FLight rain. Sunny.8 mph42%30.01 "Hg10 mi
3:53 PM93 °FSunny.7 mph41%29.98 "Hg10 mi
4:53 PM91 °FScattered clouds.6 mph44%29.97 "Hg10 mi
5:53 PM91 °FSunny.7 mph45%29.95 "Hg10 mi
6:53 PM89 °FSunny.8 mph46%29.95 "Hg10 mi
7:53 PM87 °FSunny.5 mph50%29.98 "Hg10 mi
8:53 PM83 °FMostly cloudy.15 mph61%30.00 "Hg10 mi
9:53 PM81 °FClear.12 mph65%30.03 "Hg10 mi
10:53 PM77 °FClear.9 mph74%30.04 "Hg10 mi
11:53 PM76 °FClear.7 mph74%30.02 "Hg10 mi
Weather by CustomWeather, © 2014

See weather overviewHow to use our weather pages